Вернуться в каталог

GEESAT 1-08

АктивенНаукаLEO
NORAD 52792·PAYLOAD·🇨🇳 China

Запущен Jun 2, 2022 с Xichang Satellite Launch Center

Loading…

Ближайшие Пролёты (ближайшие 24 часа)

TLE

СвежийSource: Space-Track

Эпоха: Sep 14, 2026, 13:15 UTC

1 52792U 22058H   26257.55254871  .00001115  00000-0  16844-3 0  9995
2 52792  49.9934 148.7638 0019533 273.2031  86.6672 14.81595970233182

Отслеживайте GEESAT 1-08 в реальном времени с AllMySat

Download on the App Store